Location: Courcelles
(49.2596°N, 1.7419°E)
Time: 23:58:42
(UTC+00:00)

YAOGAN 1 - Pass Details

Date: 17 November 2025
Orbit: 605 x 607 km, 97.8° (Epoch: 05 December)

Event Time Altitude Azimuth Distance (km) Brightness Sun altitude
Rises 18:04:54 0° 161° (SSE) 2,854 5.9 -18.7°
Reaches altitude 10° 18:07:04 10° 159° (SSE) 1,954 5.0 -19.1°
Maximum altitude 18:11:18 77° 75° (ENE) 629 2.4 -19.7°
Drops below altitude 10° 18:15:35 10° 349° (N) 1,969 5.2 -20.4°
Sets 18:17:46 0° 348° (NNW) 2,877 6.1 -20.8°
